This demonstration page uses our WeatherBlox Daily Observations layout. Learn more.

Hourly Observations for March 24, 2020

Temp ( °F °C ) Dew Point ( °F °C ) Humidity (%) Winds ( mph kmh ) Pressure ( in mb ) Visibility ( mi km ) Precip ( " mm )
12:15 am 00:15 Cloudy 39 4 39 4 100 100 WSW 3 6 30.13 1020 10 16.0934 0 0
12:35 am 00:35 Cloudy 39 4 39 4 100 100 Calm 30.13 1020 10 16.0934 0 0
12:55 am 00:55 Cloudy 41 5 41 5 100 100 Calm 30.13 1020 10 16.0934 0 0
1:15 am 01:15 Cloudy 41 5 41 5 100 100 Calm 30.13 1020 10 16.0934 0 0
1:35 am 01:35 Cloudy 41 5 41 5 100 100 Calm 30.12 1020 10 16.0934 0 0
1:55 am 01:55 Cloudy 41 5 41 5 100 100 NNE 3 6 30.12 1020 10 16.0934 0 0
2:15 am 02:15 Cloudy 41 5 41 5 100 100 N 5 7 30.12 1020 10 16.0934 0 0
2:35 am 02:35 Cloudy 41 5 41 5 100 100 NNE 5 7 30.12 1020 10 16.0934 0 0
2:55 am 02:55 Cloudy 41 5 41 5 100 100 N 3 6 30.13 1020 10 16.0934 0 0
3:15 am 03:15 Cloudy 41 5 39 4 93 93 Calm 30.13 1020 10 16.0934 0 0
3:35 am 03:35 Cloudy 39 4 39 4 100 100 Calm 30.14 1021 10 16.0934 0 0
3:55 am 03:55 Cloudy 39 4 39 4 100 100 NNW 3 6 30.14 1021 10 16.0934 0 0
4:15 am 04:15 Cloudy 39 4 39 4 100 100 WSW 3 6 30.15 1021 10 16.0934 0 0
4:35 am 04:35 Cloudy 39 4 39 4 100 100 Calm 30.15 1021 10 16.0934 0 0
4:55 am 04:55 Mostly Cloudy 39 4 39 4 100 100 WNW 6 9 30.16 1021 10 16.0934 0 0
5:15 am 05:15 Partly Cloudy 37 3 37 3 100 100 NW 6 9 30.16 1021 10 16.0934 0 0
5:35 am 05:35 Mostly Cloudy 37 3 37 3 100 100 NW 3 6 30.16 1021 10 16.0934 0 0
5:55 am 05:55 Cloudy 37 3 37 3 100 100 Calm 30.16 1021 10 16.0934 0 0
6:15 am 06:15 Mostly Cloudy 36 2 36 2 100 100 Calm 30.17 1022 7 11.26538 0 0
6:35 am 06:35 Cloudy 36 2 36 2 100 100 Calm 30.17 1022 7 11.26538 0 0
6:55 am 06:55 Cloudy 37 3 37 3 100 100 Calm 30.18 1022 10 16.0934 0 0
7:15 am 07:15 Cloudy 37 3 37 3 100 100 N 6 9 30.19 1022 10 16.0934 0 0
7:35 am 07:35 Cloudy 41 5 37 3 87 87 N 10 17 30.18 1022 10 16.0934 0 0
7:55 am 07:55 Cloudy 43 6 36 2 76 76 NNW 10 17 30.19 1022 10 16.0934 0 0
8:15 am 08:15 Cloudy 43 6 36 2 76 76 NNW 8 13 30.2 1023 10 16.0934 0 0
8:35 am 08:35 Cloudy 43 6 37 3 81 81 NNW 9 15 30.21 1023 10 16.0934 0 0
8:55 am 08:55 Cloudy 43 6 37 3 81 81 NNW 8 13 30.22 1023 10 16.0934 0 0
10:15 am 10:15 Cloudy 43 6 37 3 81 81 N 6 9 30.22 1023 10 16.0934 0 0
10:35 am 10:35 Cloudy 43 6 37 3 81 81 N 8 13 30.23 1024 10 16.0934 0 0
10:55 am 10:55 Cloudy 45 7 37 3 76 76 N 7 11 30.23 1024 10 16.0934 0 0
11:15 am 11:15 Cloudy 45 7 37 3 76 76 NNW 7 11 30.23 1024 10 16.0934 0 0
11:35 am 11:35 Cloudy 45 7 37 3 76 76 N 7 11 30.24 1024 10 16.0934 0 0
11:55 am 11:55 Cloudy 45 7 37 3 76 76 NNW 6 9 30.24 1024 10 16.0934 0 0
12:15 pm 12:15 Cloudy 45 7 37 3 76 76 NNW 5 7 30.22 1023 10 16.0934 0 0
12:35 pm 12:35 Cloudy 45 7 37 3 76 76 Calm 30.22 1023 10 16.0934 0 0
12:55 pm 12:55 Cloudy 45 7 37 3 76 76 N 3 6 30.22 1023 10 16.0934 0 0
1:15 pm 13:15 Cloudy 46 8 37 3 71 71 Calm 30.21 1023 10 16.0934 0 0
1:35 pm 13:35 Cloudy 46 8 37 3 71 71 NE 5 7 30.2 1023 10 16.0934 0 0
1:55 pm 13:55 Cloudy 46 8 37 3 71 71 Calm 30.19 1022 10 16.0934 0 0
2:15 pm 14:15 Cloudy 46 8 36 2 66 66 Calm 30.19 1022 10 16.0934 0 0
2:35 pm 14:35 Mostly Cloudy 46 8 37 3 71 71 N 3 6 30.17 1022 10 16.0934 0 0
2:55 pm 14:55 Partly Cloudy 48 9 37 3 66 66 NNW 6 9 30.15 1021 10 16.0934 0 0
3:15 pm 15:15 Sunny 50 10 37 3 62 62 Calm 30.15 1021 10 16.0934 0 0
3:35 pm 15:35 Partly Cloudy 50 10 37 3 62 62 Calm 30.14 1021 10 16.0934 0 0
3:55 pm 15:55 Partly Cloudy 50 10 37 3 62 62 Calm 30.11 1020 10 16.0934 0 0
4:15 pm 16:15 Sunny 50 10 37 3 62 62 E 5 7 30.11 1020 10 16.0934 0 0
4:35 pm 16:35 Sunny 50 10 37 3 62 62 Calm 30.13 1020 10 16.0934 0 0
4:55 pm 16:55 Sunny 50 10 37 3 62 62 Calm 30.12 1020 10 16.0934 0 0
5:15 pm 17:15 Sunny 50 10 37 3 62 62 Calm 30.12 1020 10 16.0934 0 0
5:35 pm 17:35 Sunny 50 10 37 3 62 62 Calm 30.13 1020 10 16.0934 0 0
5:55 pm 17:55 Sunny 50 10 37 3 62 62 Calm 30.13 1020 10 16.0934 0 0
6:15 pm 18:15 Sunny 50 10 37 3 62 62 ESE 3 6 30.13 1020 10 16.0934 0 0
6:35 pm 18:35 Sunny 50 10 37 3 62 62 Calm 30.12 1020 10 16.0934 0 0
6:55 pm 18:55 Sunny 50 10 37 3 62 62 Calm 30.11 1020 10 16.0934 0 0
7:15 pm 19:15 Sunny 50 10 39 4 67 67 Calm 30.11 1020 10 16.0934 0 0
7:35 pm 19:35 Clear 50 10 39 4 67 67 ENE 5 7 30.11 1020 10 16.0934 0 0
7:55 pm 19:55 Clear 50 10 39 4 67 67 Calm 30.11 1020 10 16.0934 0 0
8:15 pm 20:15 Clear 48 9 39 4 71 71 Calm 30.11 1020 10 16.0934 0 0
8:35 pm 20:35 Clear 48 9 39 4 71 71 Calm 30.11 1020 10 16.0934 0 0
8:55 pm 20:55 Clear 48 9 39 4 71 71 Calm 30.11 1020 10 16.0934 0 0
9:15 pm 21:15 Clear 48 9 39 4 71 71 E 3 6 30.11 1020 10 16.0934 0 0
9:35 pm 21:35 Clear 48 9 39 4 71 71 Calm 30.11 1020 10 16.0934 0 0
9:55 pm 21:55 Partly Cloudy 48 9 39 4 71 71 Calm 30.1 1019 10 16.0934 0 0
10:15 pm 22:15 Partly Cloudy 48 9 39 4 71 71 ESE 5 7 30.11 1020 10 16.0934 0 0
10:35 pm 22:35 Cloudy 48 9 41 5 76 76 SE 3 6 30.11 1020 10 16.0934 0 0
10:55 pm 22:55 Cloudy 48 9 41 5 76 76 SE 7 11 30.09 1019 10 16.0934 0 0
11:15 pm 23:15 Cloudy 48 9 41 5 76 76 SSE 7 11 30.08 1019 10 16.0934 0 0
11:35 pm 23:35 Cloudy 48 9 41 5 76 76 SSE 9 15 30.06 1018 10 16.0934 0 0
11:55 pm 23:55 Cloudy 48 9 41 5 76 76 SSE 8 13 30.08 1019 10 16.0934 0 0

Powered by AerisWeather